CZ-4 DEB

Satellite information

Favourite Embed

Satellite Type and Status

DEBRISIN ORBIT

Key statistics

Satellite CZ-4 DEB at a glance.

Uptime

9558

Days in orbit

Revolutions

≈ 14.5

Per day

Orbit

SSO

Sun Synchronous Orbit

Inclination

98.6

Latest

Satellite identification and parameters

Extended collection of information and parameters for CZ-4 DEB.

Object identification

Identified? True

Debris? True

Object name: CZ-4 DEB

International designator: 1999-057U

Object number (NORAD): 26132

Object ID (CCSDS): 26132

Country: PEOPLES REPUBLIC OF CHINA (PRC)

Current information (Y/N): Y

RCS size: SMALL

Orbital parameters

Period: 99.048 minutes

Inclination: 98.6478 deg

SMA: 7091.291 km

Apoapsis: 787.888 km

Periapsis: 638.424 km

RAAN: 70.3698 deg

Eccentricy: 0.01053857

Argument of periapsis: 126.1281 deg

Mean anomaly: 293.7999 deg

Mean motion: 14.53834052 rev/day

Mean motion (dot): 0.00011114 rev/day2

B* drag term: 0.0024658205 1/REarth

Two-line elements (TLE)

Creation date: Dec. 13, 2025, 5:47 p.m.

Reference frame: TEME

Reference center: EARTH

Epoch: Dec. 13, 2025, 4:21 a.m. UTC

TLE line 0: 0 CZ-4 DEB

TLE line 1: 1 26132U 99057U 25347.18190882 .00011114 00000-0 24658-2 0 9997

TLE line 2: 2 26132 98.6478 70.3698 0105386 126.1281 293.7999 14.53834052340858

Live tracking on map

Real-time ground track for satellite CZ-4 DEB.

In-orbit conjunctions

A list of the most updated potential collisions computed for object CZ-4 DEB.

Target Orbit TCA Probability of collision Miss distance Type
FENGYUN 1C DEB SSO 2025-06-25 17:19:04 0.0001305701 52.0 (m) DEBRIS
CZ-6A DEB LEO 2025-03-07 14:30:42 0.0001120212 191.0 (m) DEBRIS
OSCAR 18 (WEBERSAT) SSO 2025-01-21 00:11:17 0.0009219332 131.0 (m) PAYLOAD
COSMOS 1275 DEB LEO 2024-10-26 09:36:08 0.0005714807 25.0 (m) DEBRIS

Associated space launch

The CBERS (China Brazil Earth Resources Satellite) or ZY 1 (Zi Yuan) satellites are designed for global coverage and include cameras to make optical observations and a data collecting system to gather data on the environment. They are unique systems due to the use of on-board sensors which combine features that are especially designed to resolve the broad range of space and time scales involved in the monitoring and preservation of the ecosystem. They are operated jointly by the China Centre for Resources Satellite Data and Application (CRESDA) and the Brazilian INPE (Instituto Nacional de Pesquisas Espaciais, National Institute of Space Research).

CZ-4 DEB was lifted into orbit during the mission ‘Long March 4B | Zi Yuan 1-1’, on board a Long March 4B space rocket.

The launch took place on Oct. 14, 1999, 3:15 a.m. from Launch Complex 7.

For more information about the launch, click the button.

Launch to space Long March 4B | Zi Yuan 1-1
Long March 4B | Zi Yuan 1-1

Agency: N/A

Status: Launch Successful

Launch date: Oct. 14, 1999, 3:15 a.m. UTC

Rocket: Long March 4B

Launch pad: Launch Complex 7

Location: Taiyuan Satellite Launch Center, People's Republic of China

...

Latest news about this satellite

There are no fresh news available about this satellite. Check back as we update our databases every day.


Newsletter sign-up

Weekly statistics, charts and insights to help you stay on top of the space industry.